[[{"header":{"parameterUnit":"m.s-1","parameterCategory":2,"la1":30.2991,"la2":30.254,"lo1":-89.0895,"lo2":-89.0444,"dy":0.0017,"dx":0.0017,"nx":28,"ny":28,"refTime":"2025-08-14T09:00:00:Z","depth":"0","parameterNumber":2,"parameterNumberName":"U-component_of_CURRENTS"},"data":[0,0,0,0,0,0,0,0,0,0,0,0,0,0,0,0,0,0,0,0,0,0,0,0,0,0,0,0,0,0,0,0,0,0,0,0,0,0,0,0,0,0,0,0,0,0,0,0,0,0,0,0,0,0,0,0,0,0,0.2658,0.2659,0,0.2663,0.2663,0.2663,0.2646,0.2646,0.2646,0.2646,0.2582,0.258,0.2578,0,0,0,0,0,0,0,0,0,0,0,0,0,0.2577,0.2579,0.2658,0.2659,0.2659,0.2664,0.2663,0.2663,0.2646,0.2646,0.2646,0.2646,0.2582,0.258,0.2578,0,0,0,0,0,0,0,0,0,0,0,0,0,0.2595,0.2579,0.2658,0.2656,0.2656,0.2664,0.2663,0.2662,0.2646,0.2646,0.2646,0.2646,0.2583,0.258,0.2578,0.2561,0,0,0.257,0.2569,0,0,0,0,0,0,0,0,0.2594,0.2598,0.2655,0.2656,0.2656,0.2659,0.2611,0.2627,0.2646,0.2644,0.2646,0.2646,0.2605,0.26,0.2594,0.2558,0.2555,0.257,0.2568,0.2567,0.2566,0,0,0,0,0,0,0,0.2593,0.2597,0.2654,0.2656,0.2657,0.2636,0.2638,0.2614,0.2618,0.2644,0.2644,0.2654,0.2604,0.2597,0.2592,0.2554,0.257,0.2567,0.2566,0.2565,0.2535,0.2535,0,0,0,0,0,0,0.2607,0.2596,0.2654,0.2655,0.2631,0.2638,0.264,0.2653,0.262,0.2617,0.2654,0.2653,0.2601,0.2595,0.259,0.2603,0.2567,0.2564,0.2563,0.2534,0.2535,0.2536,0,0,0,0,0,0,0.2606,0.2613,0.2654,0.263,0.2634,0.264,0.2655,0.2654,0.265,0.263,0.2624,0.2653,0.2601,0.2594,0.2579,0.2599,0.2563,0.2561,0.2533,0.2534,0.2535,0.2607,0,0,0,0,0,0,0.2603,0.2612,0.2618,0.2631,0.2637,0.266,0.2655,0.2654,0.2659,0.2658,0.2627,0.2621,0.26,0.2584,0.2577,0.2595,0.2559,0.2532,0.2534,0.2535,0.2604,0.2611,0.2616,0,0,0,0,0,0.26,0.2607,0.2618,0.2625,0.2648,0.2661,0.266,0.266,0.2659,0.2656,0.2644,0.2622,0.2588,0.2582,0.2574,0.2592,0.2531,0.2533,0.2535,0.2601,0.2609,0.2616,0,0,0,0,0,0,0.257,0.2607,0.2619,0.2636,0.2651,0.266,0.2657,0.2663,0.2651,0.2649,0.2626,0.2619,0.2611,0.2591,0.2585,0.2588,0.2558,0.2558,0.2611,0.2618,0.2625,0.2619,0.2557,0,0,0,0,0,0.2571,0.2585,0.2618,0.2628,0.2638,0.2649,0.2653,0.266,0.2658,0.2653,0.2636,0.2621,0.2611,0.2607,0.2585,0.2586,0.2594,0.2593,0.26,0.2605,0.2596,0.2633,0.2643,0.2541,0.2541,0.2541,0,0,0.256,0.2584,0.259,0.2622,0.263,0.2647,0.2649,0.266,0.2671,0.2647,0.2642,0.2632,0.2613,0.2615,0.2612,0.2604,0.2647,0.2607,0.2613,0.2599,0.2636,0.2646,0.2655,0.2542,0.2542,0.2542,0,0,0.2549,0.257,0.2581,0.2599,0.2628,0.264,0.2648,0.2665,0.2667,0.2668,0.2661,0.2668,0.264,0.2647,0.2644,0.267,0.2671,0.2666,0.2702,0.274,0.2749,0.2757,0.2819,0.2831,0.2679,0.268,0.268,0,0.253,0.2563,0.2582,0.2603,0.2621,0.264,0.2659,0.2664,0.2673,0.2683,0.267,0.2671,0.2656,0.2682,0.2695,0.2684,0.2713,0.2678,0.275,0.2758,0.2764,0.2825,0.2838,0.2683,0.2683,0.2682,0.2682,0,0.2541,0.2563,0.2569,0.2607,0.2623,0.2641,0.2668,0.268,0.2688,0.2699,0.2717,0.271,0.2718,0.2724,0.2714,0.2763,0.2773,0.2749,0.2735,0.2779,0.2841,0.2853,0.2689,0.2687,0.2686,0.2685,0,0,0.2503,0.2565,0.2568,0.2592,0.2633,0.2648,0.2672,0.2705,0.2731,0.2735,0.2768,0.2767,0.2777,0.2774,0.2782,0.2816,0.2904,0.2809,0.2809,0.2877,0.3016,0.3109,0.3131,0.29,0.2901,0.2903,0.3055,0,0.2504,0.2549,0.258,0.2613,0.2637,0.267,0.2691,0.2723,0.2746,0.2779,0.2795,0.2817,0.2795,0.2818,0.2848,0.2877,0.2933,0.2866,0.2955,0.2958,0.304,0.3147,0.3125,0.3266,0.3067,0.3069,0.307,0,0.2508,0.2541,0.258,0.2633,0.2646,0.2666,0.2722,0.2745,0.2797,0.2819,0.2855,0.2869,0.2922,0.2894,0.298,0.2943,0.2985,0.301,0.3016,0.3077,0.3072,0.318,0.3295,0.3108,0.3089,0.3087,0.3086,0,0.2484,0.2538,0.2572,0.2591,0.2651,0.2673,0.2701,0.2753,0.2781,0.2853,0.2892,0.2942,0.2977,0.3025,0.3082,0.304,0.3187,0.3135,0.3265,0.3272,0.3257,0.3261,0.3202,0.3209,0.3209,0.3208,0.3208,0,0.2478,0.2501,0.2564,0.2583,0.2616,0.2661,0.2699,0.2744,0.2808,0.286,0.291,0.2967,0.3009,0.3094,0.313,0.3263,0.3236,0.3301,0.3327,0.3287,0.3292,0.3128,0.306,0.3214,0.3213,0.3212,0.3211,0,0.2443,0.2488,0.2525,0.259,0.2605,0.2627,0.2685,0.2719,0.2792,0.287,0.2901,0.2997,0.3134,0.3212,0.3314,0.3343,0.3368,0.3497,0.3469,0.349,0.343,0.337,0.3313,0.3209,0.3668,0.3671,0.3674,0,0.2438,0.2453,0.2515,0.2531,0.2558,0.2593,0.262,0.2695,0.2745,0.2892,0.2937,0.3094,0.3221,0.3436,0.3544,0.3697,0.35,0.3732,0.3641,0.3458,0.3408,0.3239,0.314,0.3658,0.366,0.3662,0.3664,0,0.2417,0.2434,0.2463,0.2499,0.2529,0.2553,0.2608,0.2647,0.2761,0.2863,0.3005,0.3124,0.3381,0.3526,0.3746,0.3824,0.356,0.3781,0.3577,0.3407,0.3231,0.3133,0.3531,0.3682,0.368,0.3679,0.3678,0.3677,0.2391,0.2399,0.2436,0.2464,0.2491,0.2516,0.2529,0.2621,0.2717,0.2861,0.3001,0.3157,0.3401,0.3727,0.38,0.382,0.3731,0.3697,0.365,0.3499,0.336,0.3832,0.4017,0.4017,0.4017,0.4017,0.4017,0,0.2358,0.2374,0.24,0.2428,0.2437,0.2466,0.2521,0.2539,0.265,0.2819,0.2962,0.3176,0.3388,0.3551,0.3733,0.3655,0.3481,0.3515,0.3202,0.3116,0.3532,0.3486,0.3581,0.3581,0.3581,0.3581,0.3581,0.3581,0.234,0.2349,0.2365,0.2371,0.2384,0.2366,0.2385,0.2439,0.2535,0.2662,0.276,0.29,0.3148,0.3414,0.3424,0.3374,0.3028,0.3002,0.2852,0.307,0.3077,0.3084,0.3017,0.3011,0.3011,0.232,0.2314,0.2311]},{"header":{"parameterUnit":"m.s-1","parameterCategory":2,"la1":30.2991,"la2":30.254,"lo1":-89.0895,"lo2":-89.0444,"dy":0.0017,"dx":0.0017,"nx":28,"ny":28,"refTime":"2025-08-14T09:00:00:Z","depth":"0","parameterNumber":3,"parameterNumberName":"V-component_of_CURRENTS"},"data":[0,0,0,0,0,0,0,0,0,0,0,0,0,0,0,0,0,0,0,0,0,0,0,0,0,0,0,0,0,0,0,0,0,0,0,0,0,0,0,0,0,0,0,0,0,0,0,0,0,0,0,0,0,0,0,0,0,0,-0.1723,-0.1724,0,-0.1795,-0.1796,-0.1797,-0.1852,-0.1853,-0.1854,-0.1854,-0.1966,-0.1968,-0.197,0,0,0,0,0,0,0,0,0,0,0,0,0,-0.1628,-0.1629,-0.1723,-0.1724,-0.1725,-0.1795,-0.1796,-0.1797,-0.1852,-0.1853,-0.1854,-0.1855,-0.1965,-0.1968,-0.197,0,0,0,0,0,0,0,0,0,0,0,0,0,-0.168,-0.163,-0.1723,-0.1763,-0.1768,-0.1795,-0.1796,-0.1797,-0.1852,-0.1853,-0.1854,-0.1855,-0.1964,-0.1967,-0.1971,-0.197,0,0,-0.1981,-0.1983,0,0,0,0,0,0,0,0,-0.1677,-0.1683,-0.1756,-0.176,-0.1765,-0.1818,-0.1804,-0.1858,-0.1852,-0.1818,-0.1854,-0.1856,-0.1921,-0.1928,-0.1935,-0.1976,-0.198,-0.1982,-0.1984,-0.1985,-0.1986,0,0,0,0,0,0,0,-0.1673,-0.168,-0.175,-0.1757,-0.1763,-0.1776,-0.1784,-0.1814,-0.1861,-0.1821,-0.1825,-0.1837,-0.1923,-0.1932,-0.1938,-0.1982,-0.1982,-0.1985,-0.1987,-0.1988,-0.2028,-0.2027,0,0,0,0,0,0,-0.1668,-0.1677,-0.1748,-0.1752,-0.1725,-0.1777,-0.1786,-0.1798,-0.186,-0.1871,-0.1836,-0.1839,-0.1925,-0.1934,-0.1943,-0.1933,-0.1985,-0.1988,-0.199,-0.2029,-0.2028,-0.2027,0,0,0,0,0,0,-0.1665,-0.1673,-0.1745,-0.1718,-0.1728,-0.1778,-0.1791,-0.1799,-0.1807,-0.1871,-0.1883,-0.1835,-0.1926,-0.1938,-0.1956,-0.1939,-0.199,-0.1993,-0.203,-0.2029,-0.2028,-0.1922,0,0,0,0,0,0,-0.1662,-0.1672,-0.1675,-0.1717,-0.1729,-0.1746,-0.179,-0.18,-0.1813,-0.1818,-0.1874,-0.1886,-0.1928,-0.195,-0.1959,-0.1944,-0.1996,-0.2032,-0.203,-0.2028,-0.1927,-0.1918,-0.1909,0,0,0,0,0,-0.1659,-0.1656,-0.1674,-0.1683,-0.1733,-0.1745,-0.1751,-0.1789,-0.1812,-0.1802,-0.184,-0.1884,-0.1945,-0.1951,-0.1962,-0.1948,-0.2033,-0.203,-0.2028,-0.1931,-0.1919,-0.191,0,0,0,0,0,0,-0.1616,-0.1663,-0.1684,-0.1696,-0.1713,-0.1755,-0.1754,-0.1779,-0.1801,-0.1807,-0.1868,-0.1881,-0.1892,-0.1931,-0.1937,-0.1955,-0.1997,-0.1997,-0.192,-0.1909,-0.1901,-0.1863,-0.1999,0,0,0,0,0,-0.1608,-0.1617,-0.1658,-0.1663,-0.167,-0.1708,-0.1719,-0.174,-0.177,-0.1781,-0.1818,-0.186,-0.189,-0.1908,-0.1939,-0.1945,-0.1961,-0.1945,-0.1936,-0.1928,-0.1904,-0.1918,-0.1908,-0.202,-0.202,-0.202,0,0,-0.1592,-0.1619,-0.1624,-0.1653,-0.1672,-0.1662,-0.1716,-0.1721,-0.1709,-0.1789,-0.1782,-0.1827,-0.1884,-0.189,-0.1899,-0.1922,-0.1901,-0.1925,-0.1918,-0.1898,-0.1915,-0.1904,-0.1894,-0.2018,-0.2018,-0.2019,0,0,-0.155,-0.1586,-0.1572,-0.158,-0.1602,-0.1624,-0.162,-0.1651,-0.1662,-0.1663,-0.1718,-0.1745,-0.1789,-0.1823,-0.1848,-0.1807,-0.1851,-0.1826,-0.1752,-0.1766,-0.1757,-0.1749,-0.1734,-0.1726,-0.1824,-0.1823,-0.1823,0,-0.1517,-0.1518,-0.1566,-0.1548,-0.1542,-0.1599,-0.1565,-0.1584,-0.1614,-0.1614,-0.1645,-0.1697,-0.1753,-0.176,-0.1751,-0.1786,-0.179,-0.1788,-0.1752,-0.1745,-0.1739,-0.1726,-0.1718,-0.1818,-0.1819,-0.1819,-0.182,0,-0.1469,-0.1459,-0.1447,-0.1445,-0.1445,-0.1424,-0.1456,-0.1456,-0.1481,-0.1503,-0.151,-0.1576,-0.161,-0.1635,-0.1683,-0.1667,-0.1683,-0.1737,-0.1775,-0.1721,-0.1711,-0.1705,-0.181,-0.1812,-0.1814,-0.1815,0,0,-0.138,-0.1406,-0.1392,-0.137,-0.1383,-0.1371,-0.1356,-0.1352,-0.133,-0.1372,-0.1342,-0.141,-0.1455,-0.1485,-0.1551,-0.1565,-0.1533,-0.1623,-0.1626,-0.1597,-0.1534,-0.147,-0.1458,-0.1582,-0.158,-0.1579,-0.1538,0,-0.1305,-0.1262,-0.1291,-0.1221,-0.1194,-0.1232,-0.1207,-0.1217,-0.1236,-0.1224,-0.1297,-0.13,-0.1397,-0.1406,-0.1438,-0.1508,-0.1514,-0.1537,-0.1599,-0.16,-0.1542,-0.1447,-0.134,-0.1288,-0.1532,-0.1531,-0.153,0,-0.122,-0.1206,-0.1141,-0.1109,-0.1096,-0.1065,-0.103,-0.1016,-0.1037,-0.1052,-0.1083,-0.1143,-0.1176,-0.1265,-0.134,-0.1349,-0.1424,-0.1478,-0.148,-0.1449,-0.1524,-0.1387,-0.1267,-0.1429,-0.1521,-0.1522,-0.1522,0,-0.1119,-0.1079,-0.1027,-0.1014,-0.1001,-0.0967,-0.0953,-0.0958,-0.093,-0.0937,-0.091,-0.0985,-0.0997,-0.1101,-0.1229,-0.1282,-0.1289,-0.1391,-0.1396,-0.1393,-0.1325,-0.1317,-0.1356,-0.1425,-0.1425,-0.1425,-0.1425,0,-0.1013,-0.0957,-0.0976,-0.0938,-0.086,-0.0876,-0.0794,-0.0796,-0.0777,-0.0708,-0.0813,-0.0766,-0.0956,-0.1,-0.1146,-0.1214,-0.123,-0.1337,-0.1364,-0.1283,-0.1272,-0.1432,-0.1555,-0.1424,-0.1424,-0.1424,-0.1425,0,-0.0898,-0.0915,-0.0845,-0.0823,-0.0811,-0.075,-0.0698,-0.0641,-0.0632,-0.054,-0.053,-0.0588,-0.0626,-0.0791,-0.0934,-0.1074,-0.1223,-0.1202,-0.1072,-0.1083,-0.1253,-0.1373,-0.1406,-0.146,-0.1196,-0.1194,-0.1192,0,-0.0842,-0.0803,-0.0759,-0.0721,-0.0704,-0.0637,-0.0587,-0.0571,-0.0499,-0.0413,-0.0346,-0.0359,-0.0334,-0.05,-0.0717,-0.0895,-0.1107,-0.0957,-0.1052,-0.1197,-0.1353,-0.1442,-0.1494,-0.0921,-0.0918,-0.0915,-0.0912,0,-0.0733,-0.0721,-0.0669,-0.0602,-0.0541,-0.0463,-0.0382,-0.0301,-0.0243,-0.0132,0.0009,0.0043,-0.0103,-0.0201,-0.0457,-0.063,-0.1023,-0.0899,-0.1089,-0.1145,-0.1204,-0.1289,-0.1016,-0.0884,-0.0887,-0.0889,-0.0891,-0.0892,-0.0645,-0.0594,-0.0544,-0.0459,-0.0395,-0.027,-0.0145,-0.0033,0.0141,0.0377,0.0332,0.0504,0.0255,-0.0059,-0.0326,-0.0741,-0.0832,-0.0889,-0.102,-0.1095,-0.1145,-0.0782,-0.0668,-0.0669,-0.0671,-0.0672,-0.0673,0,-0.0526,-0.0488,-0.0415,-0.03,-0.018,-0.0172,0.0007,0.0175,0.045,0.0662,0.0835,0.089,0.0583,0.0154,-0.0409,-0.0776,-0.0966,-0.1012,-0.1143,-0.1195,-0.0887,-0.0874,-0.0748,-0.0748,-0.0748,-0.0747,-0.0747,-0.0747,-0.0463,-0.037,-0.0334,-0.0125,-0.0028,0.0191,0.0334,0.058,0.0781,0.1156,0.1348,0.1416,0.1097,0.0002,-0.0781,-0.1001,-0.133,-0.1344,-0.1557,-0.1395,-0.1396,-0.1396,-0.1412,-0.1402,-0.1403,-0.177,-0.1774,-0.1777]}],[{"header":{"parameterUnit":"m.s-1","parameterCategory":2,"la1":30.2991,"la2":30.254,"lo1":-89.0895,"lo2":-89.0444,"dy":0.0017,"dx":0.0017,"nx":28,"ny":28,"refTime":"2025-08-14T09:00:00:Z","depth":"2","parameterNumber":2,"parameterNumberName":"U-component_of_CURRENTS"},"data":[0,0,0,0,0,0,0,0,0,0,0,0,0,0,0,0,0,0,0,0,0,0,0,0,0,0,0,0,0,0,0,0,0,0,0,0,0,0,0,0,0,0,0,0,0,0,0,0,0,0,0,0,0,0,0,0,0,0,0.1955,0.1955,0,0.1988,0.1988,0.1989,0.1971,0.197,0.1969,0.1969,0.1981,0.1982,0.1983,0,0,0,0,0,0,0,0,0,0,0,0,0,0.1899,0.19,0.1954,0.1955,0.1955,0.1988,0.1988,0.1989,0.1971,0.197,0.1969,0.1968,0.198,0.1982,0.1983,0,0,0,0,0,0,0,0,0,0,0,0,0,0.1926,0.19,0.1954,0.1951,0.1951,0.1988,0.1988,0.1989,0.1971,0.197,0.1969,0.1968,0.198,0.1981,0.1983,0.2018,0,0,0.1988,0.1989,0,0,0,0,0,0,0,0,0.1925,0.1928,0.1951,0.1951,0.1952,0.1975,0.1973,0.1998,0.1972,0.1963,0.1969,0.1967,0.1978,0.198,0.1988,0.2019,0.2019,0.1988,0.1989,0.199,0.199,0,0,0,0,0,0,0,0.1923,0.1927,0.1967,0.1952,0.1952,0.1956,0.1958,0.1978,0.1976,0.1964,0.1963,0.1968,0.1978,0.1987,0.1988,0.2019,0.1988,0.199,0.1991,0.1991,0.2113,0.2115,0,0,0,0,0,0,0.1921,0.1925,0.1966,0.1968,0.1936,0.1958,0.1961,0.1968,0.1976,0.1977,0.1969,0.1967,0.1984,0.1986,0.1989,0.2049,0.199,0.1991,0.1992,0.211,0.2113,0.2116,0,0,0,0,0,0,0.1919,0.1924,0.1965,0.1948,0.1953,0.196,0.1969,0.1969,0.1982,0.1981,0.198,0.1981,0.1984,0.1986,0.2027,0.2048,0.1992,0.1994,0.2108,0.2111,0.2114,0.2157,0,0,0,0,0,0,0.1918,0.1923,0.1933,0.1948,0.1954,0.2,0.197,0.1971,0.1987,0.1985,0.1991,0.1991,0.1983,0.2025,0.2029,0.2049,0.1995,0.2105,0.2109,0.2113,0.2153,0.2162,0.2169,0,0,0,0,0,0.1916,0.1928,0.1934,0.1939,0.1966,0.2002,0.2006,0.2006,0.1989,0.2009,0.2017,0.1991,0.2054,0.2029,0.2033,0.2054,0.2103,0.2108,0.2113,0.2149,0.216,0.2169,0,0,0,0,0,0,0.1916,0.1928,0.1934,0.1953,0.1984,0.1999,0.2011,0.2015,0.2037,0.2033,0.2024,0.2026,0.207,0.2066,0.2039,0.2105,0.2073,0.2079,0.2099,0.2109,0.2117,0.213,0.1996,0,0,0,0,0,0.1922,0.1928,0.1956,0.1974,0.1987,0.2004,0.2018,0.2026,0.2045,0.2052,0.2059,0.2072,0.2096,0.2105,0.2128,0.2165,0.2193,0.2183,0.2191,0.2197,0.2214,0.2272,0.2287,0.2132,0.2132,0.2132,0,0,0.1926,0.1935,0.1939,0.1975,0.1991,0.2023,0.2009,0.204,0.2069,0.2052,0.2092,0.2105,0.2116,0.2159,0.2177,0.2155,0.2264,0.2204,0.2209,0.2222,0.2279,0.2294,0.2307,0.2136,0.2135,0.2134,0,0,0.1939,0.1949,0.1962,0.1989,0.2024,0.2043,0.2056,0.2088,0.2103,0.215,0.2147,0.2184,0.2208,0.223,0.2239,0.2311,0.2309,0.2308,0.2352,0.2408,0.242,0.2432,0.2513,0.2531,0.2305,0.2305,0.2305,0,0.1943,0.1966,0.1977,0.2004,0.2024,0.2053,0.2085,0.2115,0.2161,0.2186,0.2168,0.224,0.2245,0.2306,0.2327,0.2328,0.2366,0.2306,0.2417,0.2429,0.244,0.2519,0.2539,0.2308,0.2308,0.2307,0.2307,0,0.1977,0.1993,0.2005,0.2043,0.2074,0.2108,0.2151,0.2195,0.2211,0.2239,0.2307,0.2329,0.2368,0.2375,0.2368,0.2452,0.2458,0.2423,0.2386,0.2458,0.2538,0.2558,0.2312,0.2311,0.231,0.2309,0,0,0.1992,0.2017,0.2025,0.2041,0.2095,0.2127,0.2187,0.2254,0.2296,0.2343,0.24,0.2448,0.246,0.2475,0.248,0.2526,0.2639,0.2507,0.2509,0.2579,0.279,0.2817,0.2841,0.2615,0.2618,0.262,0.2823,0,0.2017,0.2051,0.2068,0.2118,0.2141,0.2184,0.2235,0.2301,0.2348,0.2417,0.2461,0.2515,0.2496,0.2518,0.2567,0.2619,0.2689,0.2589,0.2719,0.2724,0.273,0.2863,0.2477,0.2627,0.2842,0.2846,0.2848,0,0.2058,0.2071,0.2108,0.2144,0.2161,0.2202,0.2292,0.2341,0.2441,0.2477,0.2547,0.2579,0.2676,0.2633,0.2782,0.2717,0.2769,0.2806,0.2814,0.2836,0.2787,0.2588,0.2655,0.2881,0.2878,0.2876,0.2874,0,0.2066,0.2104,0.2128,0.2144,0.2197,0.2234,0.2273,0.2364,0.2419,0.2526,0.2585,0.2678,0.2748,0.2819,0.2907,0.2848,0.3074,0.2994,0.3082,0.3085,0.2784,0.2756,0.3117,0.3117,0.3117,0.3116,0.3115,0,0.2081,0.2102,0.2134,0.2149,0.2196,0.2236,0.2305,0.2362,0.2461,0.2536,0.2614,0.2703,0.2796,0.2925,0.297,0.312,0.3134,0.3141,0.3153,0.2794,0.2766,0.2988,0.2971,0.3124,0.3122,0.312,0.3119,0,0.2077,0.2094,0.2126,0.2177,0.2196,0.2232,0.231,0.2357,0.2462,0.257,0.2612,0.2769,0.2938,0.3056,0.3205,0.3224,0.3337,0.3382,0.2984,0.2947,0.3293,0.3275,0.3501,0.3504,0.3507,0.3509,0.351,0,0.2074,0.2089,0.2139,0.2147,0.2166,0.2219,0.225,0.2347,0.2405,0.2603,0.2658,0.2871,0.2979,0.325,0.3257,0.338,0.3477,0.3192,0.3015,0.3352,0.334,0.3318,0.3297,0.2632,0.2627,0.2622,0.2619,0,0.2065,0.2086,0.2098,0.2118,0.2145,0.218,0.2239,0.2295,0.2421,0.2524,0.2688,0.2793,0.2992,0.2943,0.313,0.3144,0.3133,0.3112,0.3558,0.2618,0.2555,0.2536,0.2539,0.2578,0.2582,0.2585,0.2587,0.2589,0.2056,0.205,0.2061,0.2079,0.2104,0.2131,0.2143,0.2196,0.2283,0.2368,0.2554,0.26,0.2657,0.2722,0.2729,0.2763,0.2967,0.2869,0.2872,0.2882,0.2769,0.2716,0.2749,0.2753,0.2758,0.2761,0.2765,0,0.2021,0.2006,0.2014,0.2028,0.2031,0.2072,0.2122,0.2071,0.2101,0.2188,0.2256,0.2116,0.2099,0.2243,0.2154,0.2241,0.2093,0.2253,0.1977,0.202,0.2057,0.1891,0.1644,0.1641,0.1639,0.1637,0,0,0.1993,0.1959,0.1957,0.195,0.1967,0.1912,0.1921,0.1837,0.1838,0.1791,0.1797,0.1885,0.2074,0.1768,0.1772,0.1698,0.1839,0.1646,0.2525,0.2231,0.2265,0.2386,0.2179,0,0,0,0,0]},{"header":{"parameterUnit":"m.s-1","parameterCategory":2,"la1":30.2991,"la2":30.254,"lo1":-89.0895,"lo2":-89.0444,"dy":0.0017,"dx":0.0017,"nx":28,"ny":28,"refTime":"2025-08-14T09:00:00:Z","depth":"2","parameterNumber":3,"parameterNumberName":"V-component_of_CURRENTS"},"data":[0,0,0,0,0,0,0,0,0,0,0,0,0,0,0,0,0,0,0,0,0,0,0,0,0,0,0,0,0,0,0,0,0,0,0,0,0,0,0,0,0,0,0,0,0,0,0,0,0,0,0,0,0,0,0,0,0,0,0.0813,0.0811,0,0.0608,0.0605,0.0603,0.0468,0.0467,0.0466,0.0465,0.0202,0.0196,0.019,0,0,0,0,0,0,0,0,0,0,0,0,0,0.1014,0.1012,0.0813,0.0811,0.0808,0.0608,0.0605,0.0603,0.0468,0.0467,0.0465,0.0464,0.0204,0.0197,0.019,0,0,0,0,0,0,0,0,0,0,0,0,0,0.0882,0.1011,0.0814,0.0715,0.0704,0.0609,0.0605,0.0602,0.0468,0.0467,0.0465,0.0464,0.0206,0.0197,0.0189,0.0165,0,0,0.0161,0.0157,0,0,0,0,0,0,0,0,0.089,0.0875,0.0732,0.0722,0.0709,0.056,0.0579,0.0452,0.0469,0.056,0.0465,0.0463,0.0316,0.0298,0.0267,0.0153,0.0142,0.016,0.0155,0.0151,0.0148,0,0,0,0,0,0,0,0.0899,0.0882,0.0734,0.0729,0.0715,0.0655,0.0635,0.0555,0.045,0.0552,0.0541,0.0515,0.0309,0.0276,0.0259,0.0138,0.0161,0.0153,0.0147,0.0144,-0.0085,-0.0086,0,0,0,0,0,0,0.0926,0.0892,0.074,0.0727,0.0795,0.0653,0.0631,0.0611,0.0452,0.0426,0.0517,0.051,0.0292,0.027,0.0249,0.0131,0.0151,0.0143,0.0138,-0.0085,-0.0086,-0.0086,0,0,0,0,0,0,0.0931,0.0915,0.0749,0.0803,0.0777,0.0652,0.063,0.0608,0.0517,0.0426,0.0399,0.0442,0.029,0.0262,0.0157,0.0123,0.0139,0.013,-0.0084,-0.0085,-0.0086,-0.0054,0,0,0,0,0,0,0.0938,0.0918,0.0903,0.0805,0.0775,0.0666,0.063,0.0605,0.0506,0.0493,0.0354,0.0331,0.0286,0.0171,0.0148,0.0111,0.0123,-0.0083,-0.0084,-0.0086,-0.0054,-0.0054,-0.0054,0,0,0,0,0,0.0946,0.0934,0.0904,0.0884,0.0762,0.0665,0.0643,0.055,0.0504,0.0462,0.0381,0.0332,0.0147,0.0163,0.0136,0.0095,-0.0082,-0.0084,-0.0085,-0.0055,-0.0054,-0.0054,0,0,0,0,0,0,0.1001,0.0916,0.0881,0.0839,0.0747,0.064,0.0592,0.0523,0.0424,0.0401,0.0316,0.0288,0.0191,0.0138,0.0159,0.0029,0.0026,0.0019,0.0059,0.0058,0.0058,0.0061,0.0116,0,0,0,0,0,0.1013,0.0984,0.0883,0.0843,0.0799,0.0686,0.0628,0.0559,0.0465,0.0416,0.0311,0.0224,0.0173,0.011,0.0049,-0.0039,-0.0067,-0.008,-0.0079,-0.0079,-0.0093,-0.0129,-0.0133,-0.0091,-0.0091,-0.0091,0,0,0.1022,0.097,0.0951,0.0853,0.0776,0.0708,0.0645,0.0546,0.0474,0.0405,0.0263,0.0214,0.0154,0.0076,0.0026,0.0016,-0.0105,-0.0081,-0.008,-0.0095,-0.0131,-0.0135,-0.0138,-0.0092,-0.0092,-0.0092,0,0,0.1019,0.0977,0.0942,0.0875,0.0758,0.0696,0.0657,0.0514,0.0433,0.0307,0.027,0.0203,0.0053,0.0036,0.0009,-0.0033,-0.0091,-0.007,-0.0089,-0.0122,-0.0126,-0.0129,-0.0164,-0.0171,-0.0082,-0.0082,-0.0082,0,0.1019,0.0969,0.0911,0.0855,0.0799,0.0688,0.0624,0.0538,0.037,0.0317,0.0256,0.0106,0.0046,0.0013,-0.0004,-0.0033,-0.0069,-0.0081,-0.0121,-0.0125,-0.0129,-0.0163,-0.0171,-0.0081,-0.0081,-0.0081,-0.0081,0,0.099,0.0936,0.0905,0.0813,0.0756,0.0676,0.057,0.0479,0.0365,0.0279,0.0168,0.0094,0.001,-0.0012,-0.0037,-0.0083,-0.0104,-0.0102,-0.0116,-0.0131,-0.0167,-0.0175,-0.0079,-0.008,-0.008,-0.008,0,0,0.0989,0.0901,0.0878,0.0837,0.0722,0.0666,0.0578,0.0467,0.0404,0.0245,0.0164,0.0071,0.0017,-0.0015,-0.0044,-0.0088,-0.0146,-0.0128,-0.013,-0.0154,-0.0239,-0.0182,-0.0186,-0.016,-0.0162,-0.0163,-0.025,0,0.0953,0.0862,0.0835,0.0747,0.0684,0.0616,0.0551,0.0454,0.0344,0.0242,0.0165,0.0078,0.0022,-0.0017,-0.0071,-0.0114,-0.0171,-0.0124,-0.023,-0.0233,-0.0174,-0.0194,-0.0196,-0.0267,-0.0258,-0.026,-0.0261,0,0.0917,0.0852,0.0763,0.0704,0.0675,0.062,0.0525,0.0453,0.0342,0.0261,0.0173,0.0101,0.0026,-0.0024,-0.0142,-0.0119,-0.0197,-0.0239,-0.0243,-0.0211,-0.0193,-0.0255,-0.0284,-0.0276,-0.0275,-0.0274,-0.0273,0,0.0906,0.0816,0.0746,0.0712,0.0622,0.0579,0.0531,0.0434,0.0407,0.027,0.0254,0.012,0.0083,-0.0047,-0.0148,-0.0168,-0.0265,-0.0289,-0.0312,-0.0309,-0.034,-0.0336,-0.0391,-0.0391,-0.0391,-0.0391,-0.039,0,0.0889,0.0828,0.0728,0.0668,0.063,0.0561,0.0516,0.0455,0.0398,0.0397,0.026,0.0267,0.007,0.0001,-0.0137,-0.0235,-0.026,-0.0326,-0.0329,-0.0327,-0.0321,-0.0353,-0.0348,-0.0394,-0.0393,-0.0393,-0.0392,0,0.0897,0.0829,0.0746,0.0629,0.0614,0.0577,0.0562,0.0539,0.0474,0.048,0.0453,0.0375,0.0275,0.0111,-0.0065,-0.0172,-0.0297,-0.0326,-0.0307,-0.0306,-0.0336,-0.0328,-0.0396,-0.0395,-0.0394,-0.0393,-0.0393,0,0.0903,0.0836,0.0717,0.0715,0.0664,0.0623,0.0613,0.0564,0.057,0.0576,0.0602,0.0523,0.0521,0.0302,0.0039,-0.0191,-0.0228,-0.0319,-0.0353,-0.0341,-0.0338,-0.0331,-0.0325,-0.0396,-0.0396,-0.0395,-0.0395,0,0.0894,0.0825,0.0772,0.0733,0.072,0.0745,0.0724,0.0781,0.0749,0.0805,0.0889,0.0903,0.0661,0.0437,0.0114,-0.0042,-0.0291,-0.0312,-0.0318,-0.0365,-0.034,-0.0336,-0.0331,-0.039,-0.039,-0.0391,-0.0391,-0.0391,0.0907,0.0883,0.0794,0.0797,0.0794,0.085,0.0922,0.0961,0.1069,0.1137,0.1111,0.1106,0.0795,0.0394,0.0114,-0.0218,-0.0213,-0.0339,-0.0342,-0.0346,-0.0301,-0.0271,-0.0302,-0.0302,-0.0302,-0.0302,-0.0302,0,0.0913,0.0887,0.0875,0.0878,0.0908,0.0889,0.0991,0.1079,0.1258,0.1268,0.1323,0.1064,0.0808,0.0455,-0.0035,-0.0284,-0.0337,-0.0356,-0.0397,-0.0399,-0.0402,-0.0362,-0.0379,-0.038,-0.038,-0.0381,0,0,0.0917,0.0912,0.0897,0.0967,0.0989,0.1077,0.1176,0.13,0.1347,0.1429,0.1379,0.125,0.087,0.0499,0.013,-0.0136,-0.0202,-0.0174,-0.0087,-0.0096,-0.0095,-0.0368,-0.0304,0,0,0,0,0]}],[{"header":{"parameterUnit":"m.s-1","parameterCategory":2,"la1":30.2991,"la2":30.254,"lo1":-89.0895,"lo2":-89.0444,"dy":0.0017,"dx":0.0017,"nx":28,"ny":28,"refTime":"2025-08-14T09:00:00:Z","depth":"4","parameterNumber":2,"parameterNumberName":"U-component_of_CURRENTS"},"data":[0,0,0,0,0,0,0,0,0,0,0,0,0,0,0,0,0,0,0,0,0,0,0,0,0,0,0,0,0,0,0,0,0,0,0,0,0,0,0,0,0,0,0,0,0,0,0,0,0,0,0,0,0,0,0,0,0,0,0.0692,0.0693,0,0.0702,0.0702,0.0702,0.072,0.0721,0.0721,0.0722,0.08,0.0802,0.0803,0,0,0,0,0,0,0,0,0,0,0,0,0,0.0642,0.0643,0.0692,0.0693,0.0693,0.0702,0.0702,0.0701,0.072,0.0721,0.0722,0.0722,0.08,0.0802,0.0803,0,0,0,0,0,0,0,0,0,0,0,0,0,0.0655,0.0643,0.0692,0.0707,0.0708,0.0702,0.0702,0.0701,0.072,0.0721,0.0722,0.0723,0.0799,0.0801,0.0803,0.0794,0,0,0.081,0.0811,0,0,0,0,0,0,0,0,0.0654,0.0656,0.0704,0.0706,0.0708,0.0715,0.0713,0.0737,0.0719,0.0711,0.0722,0.0723,0.078,0.0784,0.0776,0.0798,0.0801,0.081,0.0811,0.0812,0.0813,0,0,0,0,0,0,0,0.0653,0.0656,0.0692,0.0704,0.0707,0.0697,0.07,0.0717,0.0737,0.0712,0.0714,0.0721,0.0781,0.0774,0.0778,0.0802,0.081,0.0812,0.0813,0.0814,0.0948,0.095,0,0,0,0,0,0,0.0662,0.0655,0.0692,0.0693,0.0688,0.0697,0.07,0.0708,0.0735,0.0741,0.0721,0.0722,0.077,0.0776,0.0781,0.0883,0.0812,0.0814,0.0815,0.0946,0.0949,0.0951,0,0,0,0,0,0,0.0661,0.0665,0.0691,0.0677,0.0681,0.0698,0.0705,0.0707,0.0737,0.0742,0.0749,0.0752,0.0771,0.0778,0.081,0.0882,0.0815,0.0817,0.0943,0.0947,0.095,0.1016,0,0,0,0,0,0,0.0659,0.0664,0.0683,0.0678,0.0682,0.0713,0.0705,0.0707,0.0739,0.0743,0.0771,0.0777,0.0772,0.0807,0.0812,0.0884,0.0819,0.094,0.0945,0.0949,0.1011,0.1021,0.103,0,0,0,0,0,0.0657,0.0676,0.0683,0.0689,0.0703,0.0715,0.0716,0.0728,0.074,0.0757,0.0766,0.0778,0.0841,0.0809,0.0815,0.089,0.0938,0.0943,0.0948,0.1007,0.1019,0.103,0,0,0,0,0,0,0.066,0.068,0.0688,0.0712,0.0726,0.0721,0.0743,0.0749,0.0767,0.078,0.0782,0.0788,0.0849,0.0855,0.0821,0.0943,0.0903,0.0909,0.0945,0.0957,0.0966,0.0957,0.082,0,0,0,0,0,0.067,0.0694,0.0705,0.0727,0.0741,0.0748,0.0761,0.0769,0.0779,0.079,0.0798,0.0828,0.0869,0.0899,0.0917,0.0973,0.0954,0.1034,0.1044,0.1052,0.105,0.1102,0.1116,0.0968,0.0968,0.0968,0,0,0.0678,0.0692,0.0707,0.073,0.0744,0.0766,0.0759,0.079,0.0818,0.0796,0.0837,0.0852,0.0887,0.0945,0.0978,0.0965,0.1074,0.1058,0.1065,0.1058,0.1109,0.1123,0.1136,0.0972,0.0971,0.0971,0,0,0.0685,0.0722,0.0735,0.0765,0.0796,0.08,0.082,0.0829,0.0854,0.0898,0.0891,0.0923,0.0998,0.1004,0.1033,0.1107,0.1114,0.1159,0.1214,0.1266,0.1278,0.1289,0.1233,0.1238,0.1177,0.1178,0.1178,0,0.0692,0.0724,0.0742,0.0769,0.0807,0.0823,0.0855,0.0878,0.0893,0.0923,0.0934,0.1018,0.1023,0.1097,0.1123,0.1128,0.1139,0.1165,0.1277,0.1288,0.1298,0.1238,0.1243,0.1181,0.1181,0.1181,0.118,0,0.0714,0.0752,0.0773,0.0815,0.0844,0.0891,0.0924,0.0954,0.1,0.1024,0.111,0.1109,0.1169,0.119,0.1186,0.1273,0.1247,0.1271,0.1242,0.1316,0.1248,0.1252,0.1187,0.1185,0.1184,0.1183,0,0,0.07,0.0773,0.0786,0.0821,0.0893,0.0911,0.0977,0.1036,0.1092,0.114,0.1211,0.127,0.1286,0.1315,0.1316,0.1348,0.1389,0.1359,0.136,0.1291,0.1457,0.1395,0.1392,0.1472,0.1475,0.1477,0.1362,0,0.0721,0.0775,0.0815,0.0883,0.0919,0.0982,0.104,0.1097,0.1166,0.1227,0.1275,0.1348,0.134,0.1386,0.1423,0.1386,0.1414,0.1413,0.1407,0.1403,0.1332,0.1401,0.1485,0.1365,0.1366,0.1366,0.1367,0,0.0734,0.0773,0.084,0.0929,0.0956,0.1005,0.1116,0.1174,0.127,0.1327,0.1414,0.1458,0.1487,0.1497,0.1497,0.1517,0.1509,0.1477,0.1474,0.1399,0.1352,0.1291,0.1373,0.1372,0.1372,0.1372,0.1371,0,0.0708,0.0795,0.0852,0.0894,0.0988,0.1047,0.1113,0.1214,0.1272,0.1398,0.1456,0.1524,0.1557,0.1578,0.152,0.1549,0.1494,0.1519,0.1441,0.1431,0.1485,0.1476,0.1565,0.1565,0.1565,0.1565,0.1566,0,0.0725,0.0775,0.0854,0.0897,0.098,0.1053,0.1167,0.1235,0.1337,0.1394,0.1517,0.1547,0.1605,0.1587,0.1541,0.1468,0.152,0.1445,0.1426,0.1506,0.1501,0.1483,0.1475,0.1561,0.1562,0.1563,0.1564,0,0.0695,0.0753,0.0821,0.0931,0.0969,0.1037,0.1183,0.1245,0.1362,0.1434,0.1481,0.1567,0.1559,0.155,0.152,0.1479,0.141,0.1385,0.1386,0.1368,0.1295,0.1292,0.1292,0.1289,0.1287,0.1285,0.1284,0,0.0687,0.0715,0.0829,0.0864,0.0929,0.1043,0.1107,0.1239,0.1274,0.1409,0.1394,0.148,0.1523,0.1382,0.1401,0.1317,0.1332,0.1278,0.1377,0.13,0.1281,0.1281,0.1281,0.128,0.128,0.1279,0.1279,0,0.0672,0.0719,0.0782,0.0816,0.0889,0.098,0.1068,0.1073,0.1197,0.1322,0.1318,0.1361,0.135,0.1324,0.1287,0.1227,0.13,0.1257,0.1263,0.1355,0.1286,0.127,0.1272,0.1271,0.1272,0.1273,0.1274,0,0.0667,0.0698,0.0735,0.0783,0.0841,0.0859,0.0941,0.0973,0.1032,0.116,0.1137,0.1224,0.1304,0.1272,0.1199,0.1176,0.1198,0.1181,0.1192,0.12,0.1236,0.1139,0.1067,0,0,0,0,0,0.0649,0.0665,0.0683,0.0709,0.0745,0.0783,0.0862,0.0929,0.1033,0.1004,0.1076,0.1072,0.1097,0.1115,0.1077,0.1155,0.1175,0.1107,0.1153,0.1231,0.1239,0.1297,0,0,0,0,0,0,0.0637,0.0655,0.066,0.0618,0.0617,0.0647,0.0708,0.0786,0.0763,0.0885,0.088,0.1031,0.1027,0.1105,0.1063,0.1073,0.1088,0.1167,0.1166,0.1226,0.1234,0.124,0.1303,0,0,0,0,0]},{"header":{"parameterUnit":"m.s-1","parameterCategory":2,"la1":30.2991,"la2":30.254,"lo1":-89.0895,"lo2":-89.0444,"dy":0.0017,"dx":0.0017,"nx":28,"ny":28,"refTime":"2025-08-14T09:00:00:Z","depth":"4","parameterNumber":3,"parameterNumberName":"V-component_of_CURRENTS"},"data":[0,0,0,0,0,0,0,0,0,0,0,0,0,0,0,0,0,0,0,0,0,0,0,0,0,0,0,0,0,0,0,0,0,0,0,0,0,0,0,0,0,0,0,0,0,0,0,0,0,0,0,0,0,0,0,0,0,0,0.0377,0.0377,0,0.032,0.0319,0.0318,0.0293,0.0293,0.0294,0.0294,0.0246,0.0244,0.0242,0,0,0,0,0,0,0,0,0,0,0,0,0,0.0418,0.0417,0.0377,0.0377,0.0376,0.032,0.0319,0.0318,0.0293,0.0293,0.0294,0.0294,0.0246,0.0244,0.0242,0,0,0,0,0,0,0,0,0,0,0,0,0,0.0381,0.0417,0.0377,0.036,0.0358,0.032,0.0319,0.0317,0.0293,0.0293,0.0294,0.0294,0.0247,0.0244,0.0242,0.0215,0,0,0.0234,0.0233,0,0,0,0,0,0,0,0,0.0384,0.0379,0.0363,0.0361,0.0359,0.0317,0.0315,0.0285,0.0293,0.0314,0.0294,0.0295,0.0272,0.0267,0.0251,0.0213,0.0211,0.0234,0.0233,0.0232,0.0231,0,0,0,0,0,0,0,0.0386,0.0382,0.0351,0.0362,0.036,0.0338,0.0334,0.0309,0.0288,0.0312,0.0311,0.0309,0.0271,0.0253,0.0249,0.021,0.0234,0.0232,0.0231,0.023,0.0154,0.0154,0,0,0,0,0,0,0.0401,0.0384,0.0353,0.035,0.0376,0.0338,0.0332,0.0327,0.0288,0.0284,0.0309,0.0309,0.0257,0.0252,0.0248,0.0233,0.0232,0.0229,0.0228,0.0155,0.0154,0.0153,0,0,0,0,0,0,0.0402,0.0399,0.0355,0.0368,0.0362,0.0337,0.0331,0.0326,0.0326,0.0286,0.0281,0.0317,0.0257,0.0251,0.0224,0.023,0.0228,0.0226,0.0155,0.0154,0.0154,0.0191,0,0,0,0,0,0,0.0404,0.04,0.041,0.0369,0.0362,0.0348,0.033,0.0324,0.0325,0.0324,0.0291,0.0286,0.0257,0.0227,0.0221,0.0227,0.0224,0.0156,0.0155,0.0154,0.0191,0.0192,0.0193,0,0,0,0,0,0.0405,0.0416,0.041,0.0407,0.0374,0.0349,0.0343,0.0325,0.0325,0.0327,0.0293,0.0288,0.0217,0.0225,0.0218,0.0223,0.0156,0.0155,0.0154,0.019,0.0192,0.0193,0,0,0,0,0,0,0.0439,0.0414,0.0407,0.041,0.0389,0.0347,0.0353,0.0337,0.0312,0.0316,0.0277,0.0269,0.0244,0.0227,0.0236,0.0196,0.0188,0.0185,0.0218,0.0219,0.022,0.0232,0.0222,0,0,0,0,0,0.0452,0.0453,0.0423,0.0427,0.0424,0.0392,0.0385,0.0369,0.0338,0.0329,0.0294,0.0262,0.023,0.0221,0.0185,0.0168,0.014,0.0167,0.0168,0.0169,0.0172,0.013,0.0128,0.0149,0.0149,0.015,0,0,0.0468,0.0453,0.0456,0.0435,0.042,0.0412,0.0389,0.0384,0.0373,0.0327,0.0302,0.0262,0.0223,0.0194,0.0183,0.0185,0.0146,0.0168,0.0169,0.0172,0.0129,0.0127,0.0125,0.0149,0.0149,0.0149,0,0,0.0481,0.0488,0.0486,0.0484,0.0469,0.0442,0.0448,0.0407,0.0393,0.0369,0.032,0.0276,0.0248,0.0195,0.0176,0.0163,0.0147,0.0166,0.0191,0.015,0.0148,0.0146,0.0103,0.0096,0.0175,0.0175,0.0176,0,0.0499,0.0507,0.0483,0.0487,0.05,0.0461,0.0471,0.0442,0.0391,0.038,0.0376,0.0288,0.0245,0.0197,0.0185,0.0165,0.0147,0.0193,0.0153,0.0151,0.0148,0.0103,0.0096,0.0177,0.0177,0.0177,0.0177,0,0.0517,0.0533,0.0541,0.0532,0.0525,0.0543,0.0504,0.0484,0.0469,0.0436,0.0393,0.0319,0.0281,0.0247,0.0216,0.0171,0.0164,0.0154,0.0155,0.0148,0.0101,0.0093,0.018,0.0179,0.0178,0.0178,0,0,0.0543,0.0552,0.0562,0.0579,0.0572,0.0565,0.055,0.0525,0.0525,0.0467,0.0455,0.0368,0.0339,0.0311,0.0251,0.0195,0.0142,0.0178,0.0175,0.0143,0.006,0.0056,0.0046,0.0141,0.014,0.0139,0.0033,0,0.0577,0.0601,0.0596,0.0628,0.0645,0.0629,0.0623,0.0589,0.056,0.0528,0.0449,0.0421,0.0365,0.0355,0.0288,0.0159,0.0125,0.0172,0.0063,0.0059,0.0064,0.0038,0.0136,0.0027,0.0025,0.0023,0.0022,0,0.0607,0.0624,0.0664,0.0694,0.0704,0.0721,0.0724,0.0715,0.0655,0.0633,0.0583,0.0528,0.0417,0.0395,0.0207,0.0248,0.0178,0.0084,0.0078,0.0058,0.004,0.0033,0.0007,0.0008,0.0009,0.001,0.0011,0,0.0639,0.0679,0.0719,0.0739,0.0751,0.0782,0.0798,0.0761,0.0758,0.0711,0.0702,0.058,0.0523,0.0398,0.0212,0.0227,0.0004,0.0005,-0.0059,-0.0061,-0.004,-0.0037,-0.0073,-0.0073,-0.0073,-0.0072,-0.0072,0,0.0685,0.0724,0.0755,0.0788,0.0844,0.0848,0.0906,0.0883,0.0868,0.085,0.0782,0.0715,0.0528,0.0379,0.023,0.0038,0.0032,-0.0064,-0.0089,-0.0024,-0.0017,-0.0046,-0.0042,-0.0076,-0.0075,-0.0075,-0.0074,0,0.0701,0.0728,0.0779,0.0834,0.0859,0.0908,0.0984,0.1012,0.0999,0.0969,0.0965,0.0806,0.0608,0.0416,0.0169,0.0068,-0.012,-0.016,-0.0091,-0.011,-0.0157,-0.015,-0.0243,-0.0244,-0.0245,-0.0246,-0.0246,0,0.07,0.0729,0.0809,0.0847,0.0889,0.0976,0.103,0.1065,0.1063,0.0993,0.0946,0.0802,0.0679,0.0312,0.0116,-0.014,-0.0155,-0.0225,-0.0179,-0.0159,-0.0175,-0.0166,-0.0158,-0.0248,-0.0248,-0.0248,-0.0248,0,0.0702,0.0746,0.0797,0.0848,0.0929,0.1029,0.1096,0.1077,0.1082,0.1095,0.0925,0.0772,0.0552,0.0284,0.0107,-0.0084,-0.0185,-0.0234,-0.0233,-0.019,-0.0166,-0.0179,-0.017,-0.0251,-0.0251,-0.0251,-0.0251,0,0.0708,0.0753,0.0801,0.0864,0.0955,0.1024,0.1066,0.1055,0.1061,0.0965,0.0892,0.0697,0.0582,0.0311,0.011,-0.0049,-0.007,-0.01,-0.0106,-0.0104,-0.0029,0.0023,-0.0032,0,0,0,0,0,0.0704,0.0767,0.0803,0.087,0.0951,0.1014,0.1071,0.1091,0.1071,0.0962,0.0932,0.0731,0.0459,0.031,0.0152,0.0095,-0.0102,-0.0093,-0.014,-0.0269,-0.0265,-0.02,0,0,0,0,0,0,0.0712,0.0762,0.0801,0.0866,0.0908,0.1004,0.1054,0.1039,0.0951,0.0904,0.0738,0.0724,0.043,0.0563,0.0162,0.0113,0.0066,-0.0206,-0.0209,-0.0271,-0.0267,-0.0264,-0.0196,0,0,0,0,0]}]]